Regional Weather Roundup
Issued by NWS Huntsville, AL

Home | Current Version | Previous Version | Text Only | Print | Product List | Glossary On
Versions: 1 2 3 4 5 6 7 8 9 10 11 12 13 14 15 16 17 18 19 20 21 22 23 24 25 26 27 28 29 30 31 32 33 34 35 36 37 38 39 40 41 42 43 44 45 46 47 48 49 50
000
ASUS44 KHUN 060110
RWRHUN

WEATHER ROUNDUP FOR THE TENNESSEE VALLEY
NATIONAL WEATHER SERVICE HUNTSVILLE AL
800 PM CDT SUN JUL 05 2015

ALZ001>004-060200-
NORTHWEST ALABAMA

CITY           SKY/WX    TMP DP  RH WIND       PRES   REMARKS
SHOALS AIRPORT MOCLDY    78  70  76 W6        30.09R
$$

ALZ005>007-016-060200-
NORTH CENTRAL ALABAMA

CITY           SKY/WX    TMP DP  RH WIND       PRES   REMARKS
DECATUR AP     MOCLDY    79  70  74 W6        30.08R
HUNTSVILLE AP  MOCLDY    79  71  76 SW5       30.08R
HUN NWS/UAH      N/A     78  69  72 SW5         N/A
MERIDIANVILLE  PTCLDY    75  66  73 CALM      30.08R
REDSTONE ARSN  MOCLDY    77  71  81 SW5       30.08R
VINEMONT AP    FAIR      75  70  86 CALM      30.12R
$$

ALZ008>010-060200-
NORTHEAST ALABAMA

CITY           SKY/WX    TMP DP  RH WIND       PRES   REMARKS
ALBERTVILLE    PTCLDY    73  73 100 CALM      30.10R
FORT PAYNE     PTCLDY    72  68  88 CALM      30.09R
SCOTTSBORO AP  PTCLDY    75  72  88 CALM      30.08R
SCOTTSBORO HCN   N/A     75 N/A N/A MISG        N/A
VALLEY HEAD      N/A     72 N/A N/A MISG        N/A
$$

TNZ076-096-097-060200-
SOUTHEASTERN MIDDLE TENNESSEE

CITY           SKY/WX    TMP DP  RH WIND       PRES   REMARKS
TULLAHOMA      CLOUDY    75  70  83 CALM      30.10R
WINCHESTER     PTCLDY    75  70  83 CALM      30.09R
$$

...SURROUNDING SITES...

CITY           SKY/WX    TMP DP  RH WIND       PRES   REMARKS
ATLANTA        MOCLDY    77  66  68 SW3       30.09S
ANNISTON       CLOUDY    79  70  74 SW7       30.09R
BIRMINGHAM     MOCLDY    79  70  74 W7        30.10R
CHATTANOOGA    MOCLDY    79  67  66 SW5       30.07R
CORINTH        FAIR      79  70  73 SW6       30.07R
DALTON         PTCLDY    73  72  94 CALM      30.08R
GADSDEN        PTCLDY    86  70  58 CALM      30.07R HX  90
GOLDEN TRNGL   CLEAR     77  68  73 CALM      30.09R
HALEYVILLE     FAIR      76  72  87 CALM      30.13R
JACKSON TN     PTCLDY    78  71  79 S5        30.05R
MEMPHIS        PTCLDY    79  71  76 SW10      30.06R
NASHVILLE      MOCLDY    80  71  74 VRB3      30.05R
ROME           PTCLDY    76  69  79 SW3       30.07R
SAVANNAH       CLEAR     79  32  18 CALM      30.08R
TUPELO         MOCLDY    78  72  81 SW3       30.08R
TUSCALOOSA     CLOUDY    74  71  91 SW5       30.09R
$$

...GULF COAST WEATHER...

CITY           SKY/WX    TMP DP  RH WIND       PRES   REMARKS
GULFPORT       RAIN      71  68  90 W8        30.18F
PASCAGOULA     LGT RAIN  70  69  97 W6        30.16R
MOBILE         CLOUDY    68  67  96 W8        30.16R
GULF SHORES    LGT RAIN  72  69  92 W8        30.12R
PENSACOLA      CLOUDY    73  66  78 W6        30.11S
DESTIN         MOCLDY    79  71  76 VRB3      30.10F
PANAMA CITY    CLEAR     76  71  82 CALM      30.12F
APPALACHICOLA  MOCLDY    81  72  74 CALM      30.13F
$$




USA.gov is the U.S. government's official web portal to all federal, state and local government web resources and services.